Terug naar catalogus

STARLINK-31523

ActiefCommunicatieVLEO
NORAD 59220·PAYLOAD·🇺🇸 United States

Gelanceerd Mar 11, 2024 vanaf Vandenberg Space Force Base

Loading…

Volgende Passages (komende 24 uur)

TLE

VersSource: CelesTrak SupGP

Epoch: Sep 14, 2026, 21:21 UTC

1 59220C 24046V   26257.89006944 -.00002811  00000+0 -83087-4 0  2576
2 59220  53.1597 352.2850 0001224  80.1788  30.2605 15.34382059    13

Volg STARLINK-31523 in realtime met AllMySat

Download on the App Store